Grand Forks Air Force Base, ND

3:55 PM CDT on September 25, 2016 (GMT -0500)
Grand Forks International

Weather History for KGFK - February, 2014

Change the Weather History Date:

Thursday, February 20, 2014

  Actual Average Record
Temperature  
Mean Temperature 13 °F 14 °F  
Max Temperature 24 °F 23 °F 51 °F (2000)
Min Temperature 1 °F 4 °F -33 °F (2008)
Degree Days  
Heating Degree Days 52 51  
Month to date heating degree days 1248 1088  
Since 1 July heating degree days 7340 6754  
Cooling Degree Days 0 0  
Month to date cooling degree days 0 0  
Year to date cooling degree days 0 0  
Moisture  
Dew Point 9 °F    
Average Humidity 81    
Maximum Humidity 92    
Minimum Humidity 70    
Precipitation  
Precipitation T in 0.02 in 1.20 in (1955)
Month to date precipitation 0.55 0.32  
Year to date precipitation 1.24 0.87  
Snow  
Snow T in 0.20 in 3.70 in (2012)
Month to date snowfall 5.4 4.4  
Since 1 July snowfall 45.7 35.0  
Snow Depth 12.00 in    
Sea Level Pressure  
Sea Level Pressure 29.64 in    
Wind  
Wind Speed 12 mph (NNW)    
Max Wind Speed 23 mph    
Max Gust Speed 25 mph    
Visibility 9 miles    
Events Snow    
T = Trace of Precipitation, MM = Missing Value Source: NWS Daily Summary

Daily Weather History Graph

Daily Weather History Graph

Search for Another Location

Airport or City:

Trip Planner

Search our weather history database for the weather conditions in past years. The results will help you decide how hot, cold, wet, or windy it might be!

Date:

Astronomy

Feb. 20, 2014 Rise Set
Actual Time 7:26 AM CST 5:59 PM CST
Civil Twilight 6:54 AM CST 6:30 PM CST
Nautical Twilight 6:18 AM CST 7:07 PM CST
Astronomical Twilight 5:42 AM CST 7:42 PM CST
Moon No Moon Rise 9:43 AM CST (2/20)
Length of Visible Light 11h 36m
Length of Day
10h 33m
Waning Gibbous, 70% of the Moon is Illuminated
Feb 20
Waning Gibbous
Feb 22
Last Quarter
Mar 1
New
Mar 8
First Quarter
Mar 16
Full

Hourly Weather History & Observations

Time (CST) Temp. Windchill Dew Point Humidity Pressure Visibility Wind Dir Wind Speed Gust Speed Precip Events Conditions
12:53 AM 21.9 °F 12.5 °F 19.0 °F 89% 29.51 in - NW 8.1 mph - N/A   Overcast
1:53 AM 21.0 °F 11.4 °F 17.1 °F 85% 29.52 in - NW 8.1 mph - N/A   Overcast
2:53 AM 19.0 °F 10.0 °F 16.0 °F 88% 29.52 in - NW 6.9 mph - N/A   Mostly Cloudy
3:51 AM 17.6 °F 10.7 °F 15.8 °F 93% 29.48 in - NW 4.6 mph - N/A   Scattered Clouds
3:53 AM 18.0 °F 12.7 °F 15.1 °F 88% 29.52 in - NW 3.5 mph - N/A   Scattered Clouds
4:10 AM 17.6 °F 9.3 °F 14.0 °F 86% 29.49 in - WNW 5.8 mph - N/A   Mostly Cloudy
4:53 AM 18.0 °F 12.7 °F 14.0 °F 84% 29.54 in - NNW 3.5 mph - N/A   Overcast
5:53 AM 19.0 °F 13.9 °F 15.1 °F 85% 29.55 in 10.0 mi NW 3.5 mph - N/A   Overcast
6:28 AM 19.4 °F 10.4 °F 17.6 °F 93% 29.51 in 10.0 mi NW 6.9 mph - N/A   Overcast
6:53 AM 19.9 °F 11.1 °F 18.0 °F 92% 29.56 in 10.0 mi NW 6.9 mph - N/A   Overcast
7:16 AM 19.4 °F 10.4 °F 17.6 °F 93% 29.53 in 10.0 mi NW 6.9 mph - N/A   Overcast
7:53 AM 19.0 °F 10.0 °F 17.1 °F 92% 29.58 in 7.0 mi NNW 6.9 mph - N/A   Overcast
8:53 AM 18.0 °F 6.1 °F 15.1 °F 88% 29.62 in 10.0 mi North 10.4 mph - N/A   Overcast
9:53 AM 17.1 °F 2.5 °F 14.0 °F 88% 29.63 in 7.0 mi North 15.0 mph - N/A   Overcast
10:53 AM 16.0 °F 0.6 °F 10.9 °F 81% 29.65 in 7.0 mi NNW 16.1 mph - N/A   Overcast
11:53 AM 16.0 °F 1.1 °F 10.9 °F 81% 29.68 in 5.0 mi NW 15.0 mph - 0.00 in Snow Light Snow
12:53 PM 15.1 °F -1.6 °F 8.1 °F 74% 29.68 in 10.0 mi NW 18.4 mph - 0.00 in   Overcast
1:53 PM 14.0 °F -3.4 °F 7.0 °F 74% 29.69 in 10.0 mi NW 19.6 mph - N/A   Overcast
2:53 PM 12.9 °F -3.9 °F 5.0 °F 71% 29.71 in 10.0 mi NW 17.3 mph - N/A   Overcast
3:53 PM 12.9 °F -4.4 °F 5.0 °F 71% 29.72 in 10.0 mi NNW 18.4 mph - N/A   Mostly Cloudy
4:53 PM 10.9 °F -2.6 °F 3.9 °F 73% 29.74 in 10.0 mi North 10.4 mph - N/A   Mostly Cloudy
5:20 PM 10.4 °F -3.3 °F 3.2 °F 73% 29.70 in 10.0 mi North 10.4 mph - N/A   Mostly Cloudy
5:53 PM 9.0 °F -3.2 °F 3.0 °F 77% 29.75 in 10.0 mi North 8.1 mph - N/A   Mostly Cloudy
6:44 PM 6.8 °F -5.9 °F 1.4 °F 79% 29.70 in 10.0 mi North 8.1 mph - N/A   Mostly Cloudy
6:53 PM 7.0 °F -6.6 °F 1.0 °F 77% 29.75 in 10.0 mi North 9.2 mph - N/A   Mostly Cloudy
7:53 PM 5.0 °F -13.0 °F -0.0 °F 80% 29.74 in 10.0 mi NNW 15.0 mph - N/A   Overcast
8:36 PM 3.2 °F -13.9 °F -0.4 °F 85% 29.66 in 10.0 mi NNW 12.7 mph - N/A   Overcast
8:53 PM 3.9 °F -13.0 °F -0.9 °F 80% 29.73 in 10.0 mi NNW 12.7 mph - N/A   Mostly Cloudy
9:30 PM 3.2 °F -12.2 °F -2.2 °F 78% 29.68 in 10.0 mi NNW 10.4 mph - N/A   Overcast
9:53 PM 1.9 °F -14.7 °F -2.9 °F 80% 29.73 in 10.0 mi NNW 11.5 mph - N/A   Mostly Cloudy
10:53 PM 3.0 °F -16.1 °F -2.0 °F 80% 29.73 in 10.0 mi NNW 16.1 mph - N/A   Mostly Cloudy
11:53 PM 3.0 °F -16.7 °F -2.0 °F 80% 29.72 in - NNW 17.3 mph - N/A   Clear